Weather in Russkoye

Russia / Stavropol Krai     43°49′42″N   44°33′25″E
temp.,
°C
wind,
m/s
gust,
m/s
humid.,
%
clouds,
%
prec.,
mm/h
press.,
hPa
HPBL,
m
15 april, thu
thu1500:00+9w3479100 0.0 101859
03:00+8wsw33855 0.0 101845
06:00+8w35895 0.0 101897
09:00+15w34625 0.0 1018639
12:00+19nw344272 0.0 10161308
15:00+20nnw443462 0.0 10161714
18:00+17nne3352100 0.0 101726
21:00+14ene1156100 0.0 101811
16 april, fri
fri1600:00+12n0064100 0.1 101810
03:00+10nne00709 0.1 101910
06:00+10s11729 0.0 102010
09:00+16e23535 0.0 1019566
12:00+20e45395 0.0 10181572
15:00+21e56350 0.0 10161827
18:00+18e485132 0.0 1016157
21:00+15e1262100 0.4 101812
17 april, sat
sat1700:00+13sse0068100 0.0 101810
03:00+12e1170100 0.0 101710
06:00+11nw237092 0.0 101847
09:00+14nnw5675100 0.0 1021644
12:00+16nnw6668100 0.1 10211205
15:00+15nnw5569100 0.2 1022955
18:00+12nw4778100 0.1 1023461
21:00+11wnw3489100 0.3 1024291
18 april, sun
sun1800:00+11sw1288100 0.0 102286
03:00+10ene1188100 0.0 102233
06:00+11e2488100 0.0 1021161
09:00+13ese3577100 0.0 1019673
12:00+16e5667100 0.0 10161073
15:00+19e565796 0.0 10141236
18:00+15ese3677100 0.8 1015148
21:00+13ne348720 1.1 101650
19 april, mon
mon1900:00+11sse0188100 0.0 101610
03:00+11wsw2291100 0.0 101613
06:00+11e119196 0.0 101511
09:00+16e3470100 0.0 1015410
12:00+22ene345153 0.0 1013897
15:00+23ene344464 0.0 10121655
18:00+20ne4761100 0.0 1012132
21:00+17ne4867100 0.0 1013226